DW3319 Weather Reports


time (UTC)temp
C
wind
direction
speed
KPH
gust
KPH
rain 1hr
cm
rain 24hr
cm
rain mn
cm
humidity
%
barometer
mb
20260506130045 23 148 3.2 8.0 0.00 0.00 0.00 97 1011.4
20260506124546 23 137 3.2 8.0 0.00 0.00 0.00 97 1011.2
20260506123044 23 144 4.8 11.3 0.00 0.00 0.00 97 1010.9
20260506121538 23 165 4.8 9.7 0.00 0.00 0.00 97 1010.7
20260506120104 23 164 4.8 9.7 0.00 0.00 0.00 97 1010.5
20260506114547 23 153 4.8 14.5 0.00 0.00 0.00 97 1010.6
20260506113044 23 160 4.8 11.3 0.00 0.00 0.00 97 1010.4
20260506111544 23 157 6.4 14.5 0.00 0.00 0.00 97 1010.3
20260506110041 23 153 6.4 16.1 0.00 0.00 0.00 97 1010.2
20260506104541 23 142 6.4 16.1 0.00 0.00 0.00 97 1009.9
20260506103044 23 173 6.4 14.5 0.00 0.00 0.00 97 1009.9
20260506101548 23 160 6.4 17.7 0.00 0.00 0.00 97 1009.8
20260506100044 23 168 8.0 16.1 0.00 0.00 0.00 97 1009.8
20260506094546 23 163 6.4 16.1 0.00 0.00 0.00 97 1009.9
20260506093046 23 184 4.8 12.9 0.00 0.00 0.00 97 1010.0
20260506091538 23 163 6.4 14.5 0.00 0.00 0.00 97 1010.2
20260506090045 23 163 3.2 9.7 0.00 0.00 0.00 96 1010.3
20260506084537 23 157 1.6 11.3 0.00 0.00 0.00 96 1010.4
20260506083045 23 221 1.6 14.5 0.00 0.00 0.00 96 1010.4
20260506081549 23 137 0.0 3.2 0.00 0.00 0.00 96 1010.5
20260506073050 23 93 4.8 11.3 0.00 0.00 0.00 96 1010.6
20260506071550 23 163 4.8 12.9 0.00 0.00 0.00 95 1010.7
20260506070107 23 212 6.4 14.5 0.00 0.00 0.00 95 1010.7
20260506061538 23 177 8.0 16.1 0.00 0.00 0.00 94 1010.7
20260506044556 23 157 4.8 14.5 0.00 0.00 0.00 94 1011.0
20260506043046 23 173 8.0 17.7 0.00 0.00 0.00 93 1010.9
20260506041551 23 159 6.4 17.7 0.00 0.00 0.00 93 1010.8
20260506040046 23 149 12.9 25.7 0.00 0.00 0.00 93 1010.7
20260506034542 23 171 8.0 22.5 0.00 0.00 0.00 93 1010.8
20260506033038 23 171 11.3 24.1 0.00 0.00 0.00 93 1010.5
20260506031553 23 215 11.3 19.3 0.00 0.00 0.00 94 1010.4
20260506024546 23 155 9.7 22.5 0.00 0.00 0.00 94 1010.0
20260506023045 23 155 11.3 24.1 0.00 0.00 0.00 94 1009.8
20260506021539 24 167 9.7 25.7 0.00 0.00 0.00 93 1009.6
20260506020037 24 173 9.7 22.5 0.00 0.00 0.00 92 1009.6
20260506014544 24 162 9.7 20.9 0.00 0.00 0.00 92 1009.5
20260506013048 24 171 9.7 20.9 0.00 0.00 0.00 92 1009.4
20260506011552 24 182 9.7 25.7 0.00 0.00 0.00 92 1009.2
20260506010044 24 175 12.9 29.0 0.00 0.00 0.00 92 1009.1
20260506004610 24 151 8.0 22.5 0.00 0.00 0.00 92 1008.9
20260506003045 24 153 11.3 19.3 0.00 0.00 0.00 91 1009.0
20260506001545 25 178 11.3 24.1 0.00 0.00 0.00 92 1009.1
20260506000048 25 167 9.7 22.5 0.00 0.00 0.00 91 1009.2
20260505234609 25 151 8.0 29.0 0.00 0.00 0.00 91 1009.0
20260505233044 25 221 11.3 30.6 0.00 0.00 0.00 91 1009.1
20260505231542 25 175 8.0 29.0 0.00 0.00 0.00 91 1009.2
20260505230051 25 163 11.3 29.0 0.00 0.00 0.00 91 1009.1
20260505224544 25 177 9.7 25.7 0.00 0.00 0.00 90 1009.0
20260505223059 25 201 8.0 22.5 0.00 0.00 0.00 91 1009.1
20260505221557 25 139 9.7 20.9 0.00 0.00 0.00 90 1009.0
20260505220057 25 163 6.4 19.3 0.00 0.00 0.00 90 1009.1
20260505214552 25 211 11.3 24.1 0.00 0.00 0.00 89 1009.2
20260505213049 26 202 8.0 29.0 0.00 0.00 0.00 88 1009.4
20260505211544 25 168 8.0 25.7 0.00 0.00 0.00 88 1009.5
20260505210047 25 191 8.0 30.6 0.00 0.00 0.00 88 1009.7
20260505204543 25 158 11.3 22.5 0.00 0.00 0.00 88 1009.9
20260505203045 25 225 6.4 24.1 0.00 0.00 0.00 87 1010.1
20260505201542 25 162 6.4 24.1 0.00 0.00 0.00 87 1010.0
20260505200059 25 203 4.8 30.6 0.00 0.00 0.00 86 1010.2
20260505194550 26 175 6.4 19.3 0.00 0.00 0.00 86 1010.3
20260505193042 26 144 6.4 29.0 0.00 0.00 0.00 86 1010.2
20260505191543 26 146 8.0 27.4 0.00 0.00 0.00 86 1010.3
20260505190049 26 193 6.4 24.1 0.00 0.00 0.00 86 1010.4
20260505184538 26 252 6.4 27.4 0.00 0.00 0.00 85 1010.5
20260505183048 26 173 9.7 27.4 0.00 0.00 0.00 84 1010.5
20260505181545 26 167 8.0 32.2 0.00 0.00 0.00 85 1010.7
20260505180044 25 178 4.8 27.4 0.00 0.00 0.00 86 1010.7
20260505174546 25 170 8.0 30.6 0.00 0.00 0.00 86 1010.9
20260505173044 25 185 8.0 20.9 0.00 0.00 0.00 86 1011.0
20260505171545 25 175 11.3 30.6 0.00 0.00 0.00 86 1011.1
20260505170044 25 228 6.4 27.4 0.00 0.00 0.00 85 1011.1
20260505164544 25 153 11.3 29.0 0.00 0.00 0.00 84 1010.9
20260505163042 26 225 9.7 37.0 0.00 0.00 0.00 83 1010.9
20260505161540 25 236 11.3 40.2 0.00 0.00 0.00 84 1010.9
20260505153048 25 162 16.1 35.4 0.00 0.00 0.00 84 1010.9
20260505151545 25 221 4.8 19.3 0.00 0.00 0.00 85 1011.2